Location: *
(37.5724°S, 58.0067°E)
Time: 10:06:48
(UTC+00:00)

Cosmos 1726 - Pass Details

Date: 19 January 2021
Orbit: 480 x 499 km, 82.5° (Epoch: 27 February)

Event Time Altitude Azimuth Distance (km) Brightness Sun altitude
Rises 00:07:15 0° 177° (S) 2,584 6.4 -11.0°
Reaches altitude 10° 00:09:32 10° 166° (SSE) 1,696 5.6 -10.7°
Maximum altitude 00:12:54 32° 102° (ESE) 870 4.1 -10.1°
Drops below altitude 10° 00:16:13 10° 37° (NE) 1,680 4.8 -9.6°
Sets 00:18:28 0° 26° (NNE) 2,554 5.6 -9.2°
